Location: Unspecified
(0.0000°N, 0.0000°E)
Time: 04:10:53
(UTC+00:00)

ISS - Pass Details

Date: 09 February 2026
Orbit: 413 x 428 km, 51.6° (Epoch: 18 February)

Event Time Altitude Azimuth Distance (km) Brightness Sun altitude
Exits shadow 04:19:22 22° 113° (ESE) 955 -1.3 -27.7°
Drops below altitude 10° 04:21:39 10° 71° (ENE) 1,486 -0.3 -27.1°
Sets 04:23:59 0° 56° (NE) 2,343 0.6 -26.6°
